KB6LA Weather Reports


time (UTC)temp
F
wind
direction
speed
knots
gust
knots
rain 1hr
in
rain 24hr
in
rain mn
in
humidity
%
barometer
mb
20260507151014 62 147 0.9 2.6 0.00 0.00 0.00 80 1015.5
20260507150507 62 219 0.9 3.5 0.00 0.00 0.00 80 1015.5
20260507145959 62 244 0.0 3.5 0.00 0.00 0.00 80 1015.5
20260507145452 62 175 1.7 2.6 0.00 0.00 0.00 79 1015.5
20260507144944 62 193 1.7 2.6 0.00 0.00 0.00 79 1015.5
20260507144437 62 239 0.9 1.7 0.00 0.00 0.00 79 1015.5
20260507143930 62 310 0.0 0.9 0.00 0.00 0.00 81 1015.5
20260507143422 61 311 0.0 0.9 0.00 0.00 0.00 80 1015.5
20260507142915 61 315 0.0 0.9 0.00 0.00 0.00 81 1015.5
20260507142408 61 338 0.9 0.9 0.00 0.00 0.00 81 1015.5
20260507141900 60 338 0.0 0.9 0.00 0.00 0.00 81 1015.1
20260507141353 59 338 0.0 0.9 0.00 0.00 0.00 82 1015.1
20260507140339 58 338 0.0 0.9 0.00 0.00 0.00 83 1015.1
20260507135831 58 338 0.0 1.7 0.00 0.00 0.00 84 1015.1
20260507134817 56 332 0.9 1.7 0.00 0.00 0.00 84 1015.1
20260507134310 56 333 0.9 0.9 0.00 0.00 0.00 85 1015.1
20260507133803 56 329 0.9 1.7 0.00 0.00 0.00 85 1015.1
20260507132747 55 330 0.0 1.7 0.00 0.00 0.00 86 1015.1
20260507132240 55 339 0.9 1.7 0.00 0.00 0.00 87 1015.1
20260507130718 55 328 1.7 1.7 0.00 0.00 0.00 87 1014.8
20260507125157 55 328 0.9 1.7 0.00 0.00 0.00 87 1014.8
20260507124650 55 328 1.7 1.7 0.00 0.00 0.00 87 1014.8
20260507124142 55 325 0.9 1.7 0.00 0.00 0.00 87 1014.8
20260507123635 55 323 0.9 1.7 0.00 0.00 0.00 87 1014.8
20260507123128 55 319 0.0 1.7 0.00 0.00 0.00 87 1014.5
20260507122113 54 323 0.0 1.7 0.00 0.00 0.00 87 1014.8
20260507121605 54 331 0.9 0.9 0.00 0.00 0.00 87 1014.8
20260507121058 55 331 0.0 0.9 0.00 0.00 0.00 87 1014.8
20260507120551 55 331 0.0 0.9 0.00 0.00 0.00 87 1014.8
20260507120044 54 331 0.0 0.0 0.00 0.00 0.00 86 1014.5
20260507115537 55 331 0.0 0.9 0.00 0.00 0.00 86 1014.8
20260507115029 55 331 0.0 0.9 0.00 0.00 0.00 86 1014.8
20260507114522 55 337 0.9 0.9 0.00 0.00 0.00 86 1014.8
20260507114015 55 337 0.0 0.9 0.00 0.00 0.00 86 1014.8
20260507113508 55 337 0.0 0.9 0.00 0.00 0.00 85 1014.8
20260507113001 55 337 0.0 0.9 0.00 0.00 0.00 85 1014.8
20260507112453 55 337 0.0 1.7 0.00 0.00 0.00 86 1014.8
20260507111946 55 332 0.9 1.7 0.00 0.00 0.00 86 1014.8
20260507110931 55 325 0.9 2.6 0.00 0.00 0.00 85 1015.1
20260507105916 55 329 0.9 1.7 0.00 0.00 0.00 85 1015.1
20260507105409 56 329 0.0 0.9 0.00 0.00 0.00 85 1014.8
20260507104902 56 329 0.0 0.9 0.00 0.00 0.00 86 1015.1
20260507104355 56 329 0.9 0.9 0.00 0.00 0.00 86 1015.1
20260507103848 56 329 0.0 0.9 0.00 0.00 0.00 86 1015.1
20260507103341 56 335 0.0 0.9 0.00 0.00 0.00 85 1015.1
20260507102833 56 336 0.0 0.9 0.00 0.00 0.00 86 1015.1
20260507101819 56 335 0.0 1.7 0.00 0.00 0.00 86 1015.1
20260507101311 56 4 0.0 1.7 0.00 0.00 0.00 87 1015.1
20260507100804 56 350 0.0 1.7 0.00 0.00 0.00 87 1015.1
20260507100257 56 335 0.0 0.9 0.00 0.00 0.00 88 1015.1
20260507095750 56 335 0.0 1.7 0.00 0.00 0.00 88 1015.1
20260507094735 56 327 0.0 0.9 0.00 0.00 0.00 88 1015.1
20260507094227 56 327 0.9 0.9 0.00 0.00 0.00 88 1015.5
20260507093720 57 327 0.0 0.9 0.00 0.00 0.00 88 1015.5
20260507093213 58 328 0.0 1.7 0.00 0.00 0.00 89 1015.5
20260507092159 58 353 0.0 0.9 0.00 0.00 0.00 89 1015.5
20260507091652 58 347 0.0 1.7 0.00 0.00 0.00 88 1015.5
20260507091145 58 349 0.9 1.7 0.00 0.00 0.00 88 1015.5
20260507090637 58 32 0.9 1.7 0.00 0.00 0.00 88 1015.5
20260507090130 58 0 0.9 1.7 0.00 0.00 0.00 88 1015.5
20260507085623 58 7 0.0 1.7 0.00 0.00 0.00 88 1015.8
20260507085116 58 0 0.0 1.7 0.00 0.00 0.00 88 1015.8
20260507084608 58 2 0.9 3.5 0.00 0.00 0.00 88 1015.8
20260507084100 58 141 1.7 3.5 0.00 0.00 0.00 88 1015.8
20260507083047 58 18 0.9 2.6 0.00 0.00 0.00 88 1015.8
20260507082539 58 8 0.9 2.6 0.00 0.00 0.00 88 1015.8
20260507081524 58 86 2.6 2.6 0.00 0.00 0.00 88 1016.2
20260507081017 58 45 0.9 2.6 0.00 0.00 0.00 88 1016.2
20260507080510 58 351 0.0 2.6 0.00 0.00 0.00 88 1015.8
20260507080004 58 52 0.9 2.6 0.00 0.00 0.00 89 1015.8
20260507075456 58 30 1.7 2.6 0.00 0.00 0.00 88 1015.8
20260507074949 58 40 1.7 2.6 0.00 0.00 0.00 89 1016.2
20260507074441 58 9 0.9 2.6 0.00 0.00 0.00 88 1016.2
20260507073934 58 356 0.0 2.6 0.00 0.00 0.00 88 1016.2
20260507073426 58 14 1.7 3.5 0.00 0.00 0.00 89 1016.2
20260507072919 58 13 2.6 3.5 0.00 0.00 0.00 89 1016.2
20260507072412 58 351 0.9 2.6 0.00 0.00 0.00 89 1016.2
20260507071904 59 356 0.9 2.6 0.00 0.00 0.00 89 1016.2
20260507071357 59 8 1.7 1.7 0.00 0.00 0.00 89 1016.2
20260507070850 58 349 0.0 1.7 0.00 0.00 0.00 89 1016.2
20260507065836 58 357 0.0 2.6 0.00 0.00 0.00 89 1016.2
20260507065329 58 357 0.0 2.6 0.00 0.00 0.00 89 1016.2
20260507064821 58 71 0.9 2.6 0.00 0.00 0.00 89 1016.2
20260507064314 58 79 1.7 2.6 0.00 0.00 0.00 89 1016.5
20260507063806 58 60 0.9 2.6 0.00 0.00 0.00 89 1016.5
20260507063259 58 117 1.7 2.6 0.00 0.00 0.00 89 1016.2
20260507062752 59 129 0.9 2.6 0.00 0.00 0.00 89 1016.5
20260507062244 59 17 0.9 3.5 0.00 0.00 0.00 89 1016.2
20260507061230 59 130 1.7 2.6 0.00 0.00 0.00 89 1016.2
20260507060216 59 75 1.7 3.5 0.00 0.00 0.00 89 1016.2
20260507055708 59 85 1.7 3.5 0.00 0.00 0.00 89 1016.5
20260507055201 59 29 1.7 3.5 0.00 0.00 0.00 89 1016.5
20260507054653 59 127 1.7 2.6 0.00 0.00 0.00 89 1016.2
20260507054146 59 97 1.7 2.6 0.00 0.00 0.00 89 1016.2
20260507053132 59 145 0.9 3.5 0.00 0.00 0.00 88 1016.2
20260507052625 59 155 0.9 3.5 0.00 0.00 0.00 88 1016.2
20260507052118 59 87 1.7 3.5 0.00 0.00 0.00 88 1016.2
20260507051103 59 156 1.7 3.5 0.00 0.00 0.00 88 1016.2
20260507050556 59 45 0.9 2.6 0.00 0.00 0.00 87 1016.2
20260507050049 59 135 1.7 2.6 0.00 0.00 0.00 87 1016.2
20260507045541 59 106 1.7 2.6 0.00 0.00 0.00 88 1016.2
20260507045034 59 100 2.6 2.6 0.00 0.00 0.00 88 1016.2
20260507044527 59 346 0.0 0.9 0.00 0.00 0.00 88 1015.8
20260507044020 59 349 0.0 0.9 0.00 0.00 0.00 88 1016.2
20260507043511 59 25 0.9 0.9 0.00 0.00 0.00 88 1016.2
20260507043004 59 285 0.0 1.7 0.00 0.00 0.00 88 1016.2
20260507042457 59 198 0.9 1.7 0.00 0.00 0.00 88 1016.2
20260507041443 59 246 0.0 2.6 0.00 0.00 0.00 88 1016.2
20260507040935 59 192 0.9 2.6 0.00 0.00 0.00 88 1015.8
20260507040428 59 197 1.7 1.7 0.00 0.00 0.00 88 1016.2
20260507035921 59 234 0.9 1.7 0.00 0.00 0.00 88 1015.8
20260507034359 59 202 1.7 1.7 0.00 0.00 0.00 88 1015.8
20260507033852 59 250 0.0 1.7 0.00 0.00 0.00 88 1015.8
20260507032838 59 251 1.7 1.7 0.00 0.00 0.00 87 1015.5
20260507032330 59 217 0.9 1.7 0.00 0.00 0.00 87 1015.5
20260507031823 59 247 0.9 2.6 0.00 0.00 0.00 87 1015.5
20260507030808 59 242 0.9 3.5 0.00 0.00 0.00 86 1015.1
20260507030301 59 288 0.0 3.5 0.00 0.00 0.00 86 1015.1
20260507025755 59 296 0.0 3.5 0.00 0.00 0.00 85 1015.1
20260507025246 60 238 1.7 6.1 0.00 0.00 0.00 85 1015.1
20260507024739 60 263 1.7 6.1 0.00 0.00 0.00 84 1015.1
20260507024232 60 299 0.0 5.2 0.00 0.00 0.00 83 1015.1
20260507023725 60 265 3.5 5.2 0.00 0.00 0.00 82 1015.1
20260507023217 60 228 1.7 5.2 0.00 0.00 0.00 82 1015.1
20260507022710 61 271 1.7 6.1 0.00 0.00 0.00 81 1015.1
20260507022203 61 252 1.7 7.8 0.00 0.00 0.00 80 1015.1
20260507021148 61 243 5.2 7.8 0.00 0.00 0.00 79 1015.1
20260507020134 62 193 3.5 9.6 0.00 0.00 0.00 77 1015.1
20260507015627 62 250 6.1 9.6 0.00 0.00 0.00 75 1015.1
20260507015120 62 251 5.2 11.3 0.00 0.00 0.00 75 1015.1
20260507014104 63 240 5.2 8.7 0.00 0.00 0.00 72 1015.1
20260507013557 63 260 5.2 7.8 0.00 0.00 0.00 72 1015.1
20260507013050 63 254 5.2 7.8 0.00 0.00 0.00 73 1015.1
20260507012543 63 222 4.3 12.2 0.00 0.00 0.00 73 1014.8
20260507012036 62 235 5.2 13.9 0.00 0.00 0.00 72 1015.1
20260507011528 63 237 9.6 12.2 0.00 0.00 0.00 72 1015.1
20260507011021 63 252 3.5 12.2 0.00 0.00 0.00 73 1014.8
20260507010514 63 250 7.0 11.3 0.00 0.00 0.00 73 1014.8
20260507005459 63 259 5.2 13.0 0.00 0.00 0.00 73 1014.8
20260507004951 63 242 7.8 13.0 0.00 0.00 0.00 73 1014.8
20260507004444 63 264 7.0 15.6 0.00 0.00 0.00 73 1014.8
20260507003937 63 271 8.7 15.6 0.00 0.00 0.00 73 1014.8
20260507003429 64 228 10.4 13.0 0.00 0.00 0.00 71 1015.1
20260507002922 64 202 9.6 12.2 0.00 0.00 0.00 70 1014.8
20260507002415 65 292 6.1 11.3 0.00 0.00 0.00 71 1014.8
20260507001908 65 265 3.5 11.3 0.00 0.00 0.00 71 1014.8
20260507001400 64 215 5.2 11.3 0.00 0.00 0.00 73 1014.8
20260507000854 64 261 4.3 13.0 0.00 0.00 0.00 73 1014.8
20260507000347 64 232 12.2 13.0 0.00 0.00 0.00 72 1014.8
20260506235839 64 216 7.8 14.8 0.00 0.00 0.00 73 1014.8
20260506235332 65 252 8.7 14.8 0.00 0.00 0.00 72 1014.8
20260506234825 65 188 4.3 13.0 0.00 0.00 0.00 71 1014.8
20260506234317 65 254 6.1 13.9 0.00 0.00 0.00 71 1014.8
20260506233810 65 243 7.8 13.9 0.00 0.00 0.00 69 1014.8
20260506233303 66 213 3.5 12.2 0.00 0.00 0.00 68 1014.8
20260506232247 65 217 5.2 14.8 0.00 0.00 0.00 63 1014.8
20260506231234 66 280 7.8 13.9 0.00 0.00 0.00 63 1014.8
20260506230726 65 210 7.8 13.9 0.00 0.00 0.00 61 1014.8
20260506230219 65 228 9.6 13.9 0.00 0.00 0.00 61 1015.1
20260506225712 65 224 7.0 13.9 0.00 0.00 0.00 66 1014.8
20260506225204 65 207 11.3 13.9 0.00 0.00 0.00 65 1015.1
20260506224657 65 248 9.6 13.9 0.00 0.00 0.00 64 1015.1
20260506224149 66 246 11.3 13.9 0.00 0.00 0.00 62 1015.1
20260506223642 65 248 7.0 13.9 0.00 0.00 0.00 62 1015.1
20260506223134 66 243 7.0 13.9 0.00 0.00 0.00 62 1015.1
20260506222627 65 221 9.6 13.9 0.00 0.00 0.00 61 1015.5
20260506222120 65 226 6.1 13.9 0.00 0.00 0.00 65 1015.5
20260506221613 66 229 12.2 13.9 0.00 0.00 0.00 63 1015.5
20260506221105 65 267 5.2 13.9 0.00 0.00 0.00 64 1015.5
20260506220558 66 226 9.6 13.9 0.00 0.00 0.00 61 1015.5
20260506215544 65 236 8.7 14.8 0.00 0.00 0.00 59 1015.8
20260506215037 65 238 6.1 14.8 0.00 0.00 0.00 62 1015.8
20260506214528 65 34 2.6 13.0 0.00 0.00 0.00 63 1015.8
20260506214021 67 249 9.6 13.0 0.00 0.00 0.00 63 1015.8
20260506213514 65 202 5.2 13.0 0.00 0.00 0.00 64 1015.8
20260506213007 65 237 7.8 13.0 0.00 0.00 0.00 66 1016.2
20260506212501 66 244 7.8 13.9 0.00 0.00 0.00 63 1016.2
20260506211952 66 238 3.5 13.0 0.00 0.00 0.00 64 1016.2
20260506211445 66 229 7.0 13.0 0.00 0.00 0.00 63 1016.2
20260506210938 65 296 6.1 13.0 0.00 0.00 0.00 63 1016.2
20260506210431 66 244 11.3 14.8 0.00 0.00 0.00 61 1016.2
20260506205923 66 240 8.7 14.8 0.00 0.00 0.00 62 1016.2
20260506205416 66 241 5.2 13.0 0.00 0.00 0.00 61 1016.2
20260506204909 66 239 7.8 11.3 0.00 0.00 0.00 61 1016.2
20260506203347 67 263 7.8 9.6 0.00 0.00 0.00 59 1016.5
20260506202840 66 265 6.1 11.3 0.00 0.00 0.00 62 1016.5
20260506202332 67 235 9.6 11.3 0.00 0.00 0.00 61 1016.5
20260506201824 66 242 7.0 13.0 0.00 0.00 0.00 62 1016.5
20260506201318 65 235 7.0 13.0 0.00 0.00 0.00 63 1016.8
20260506200810 66 252 7.8 12.2 0.00 0.00 0.00 63 1016.8
20260506200303 66 245 7.8 12.2 0.00 0.00 0.00 63 1016.8
20260506195756 65 210 7.8 13.0 0.00 0.00 0.00 64 1016.8
20260506195249 65 216 7.8 13.0 0.00 0.00 0.00 62 1016.8
20260506194742 65 277 7.0 12.2 0.00 0.00 0.00 62 1016.8
20260506194234 66 220 9.6 11.3 0.00 0.00 0.00 61 1016.8
20260506193727 65 300 5.2 12.2 0.00 0.00 0.00 64 1016.8
20260506193220 66 239 7.8 12.2 0.00 0.00 0.00 61 1016.8
20260506192712 65 220 5.2 12.2 0.00 0.00 0.00 65 1016.8
20260506191657 67 240 5.2 8.7 0.00 0.00 0.00 62 1017.2
20260506191150 66 234 6.1 11.3 0.00 0.00 0.00 62 1016.8
20260506190643 65 239 7.8 11.3 0.00 0.00 0.00 63 1017.2
20260506190136 65 253 7.0 13.9 0.00 0.00 0.00 64 1017.2
20260506185629 66 238 9.6 13.9 0.00 0.00 0.00 63 1017.2
20260506184614 65 222 6.1 9.6 0.00 0.00 0.00 64 1017.2
20260506184107 65 202 7.0 11.3 0.00 0.00 0.00 64 1017.2
20260506183600 64 202 7.0 11.3 0.00 0.00 0.00 65 1017.2
20260506183052 65 265 7.8 9.6 0.00 0.00 0.00 65 1017.2
20260506182545 65 257 7.0 13.0 0.00 0.00 0.00 66 1017.2
20260506181023 65 256 5.2 8.7 0.00 0.00 0.00 64 1017.5
20260506180515 65 243 7.0 11.3 0.00 0.00 0.00 65 1017.2
20260506180008 66 184 7.8 9.6 0.00 0.00 0.00 64 1017.2
20260506175501 65 202 4.3 8.7 0.00 0.00 0.00 67 1017.5
20260506174954 65 184 5.2 9.6 0.00 0.00 0.00 66 1017.5
20260506174446 65 204 5.2 9.6 0.00 0.00 0.00 67 1017.5
20260506173939 65 213 5.2 9.6 0.00 0.00 0.00 67 1017.2
20260506173431 66 255 5.2 8.7 0.00 0.00 0.00 65 1017.5
20260506172924 66 235 6.1 9.6 0.00 0.00 0.00 65 1017.2
20260506172417 67 167 4.3 9.6 0.00 0.00 0.00 65 1017.5
20260506171909 67 222 0.9 5.2 0.00 0.00 0.00 63 1017.2
20260506171402 67 151 1.7 6.1 0.00 0.00 0.00 60 1017.2
20260506170855 67 243 0.9 6.1 0.00 0.00 0.00 59 1017.2
20260506170348 68 1 1.7 5.2 0.00 0.00 0.00 57 1017.2
20260506165841 67 121 0.9 5.2 0.00 0.00 0.00 60 1017.2
20260506165334 67 95 3.5 5.2 0.00 0.00 0.00 61 1017.2
20260506164826 65 128 1.7 3.5 0.00 0.00 0.00 62 1017.2
20260506164319 65 150 1.7 3.5 0.00 0.00 0.00 63 1017.2
20260506163811 65 199 0.9 3.5 0.00 0.00 0.00 64 1017.2
20260506162250 64 94 1.7 7.0 0.00 0.00 0.00 66 1017.2
20260506161743 65 189 5.2 7.0 0.00 0.00 0.00 65 1017.2
20260506161235 64 19 1.7 3.5 0.00 0.00 0.00 69 1017.2
20260506160728 63 99 1.7 5.2 0.00 0.00 0.00 70 1017.2
20260506160221 63 161 3.5 5.2 0.00 0.00 0.00 70 1017.5
20260506155714 62 87 1.7 5.2 0.00 0.00 0.00 71 1017.2
20260506155206 63 174 2.6 3.5 0.00 0.00 0.00 70 1017.2
20260506153643 61 109 1.7 6.1 0.00 0.00 0.00 74 1017.2
20260506153137 61 144 2.6 6.1 0.00 0.00 0.00 75 1017.5
20260506152630 61 189 2.6 5.2 0.00 0.00 0.00 75 1017.5
20260506152122 62 49 0.9 5.2 0.00 0.00 0.00 74 1017.2
20260506151616 62 94 1.7 3.5 0.00 0.00 0.00 75 1017.2